Weather History for Joensuu, Finland

Change the Weather History Date:

Saturday, March 23, 2013

  Actual Average Record
Temperature  
Mean Temperature 19 °F -  
Max Temperature 28 °F - - ()
Min Temperature 10 °F - - ()
Degree Days  
Heating Degree Days 46    
Moisture  
Dew Point 14 °F    
Average Humidity 75    
Maximum Humidity 93    
Minimum Humidity 51    
Precipitation  
Precipitation 0.00 in 0.05 in - ()
Sea Level Pressure  
Sea Level Pressure 30.25 in    
Wind  
Wind Speed 6 mph ()    
Max Wind Speed 10 mph    
Max Gust Speed -    
Visibility 6.1 miles    
Events Snow    
T = Trace of Precipitation, MM = Missing Value Source: Averaged Metar Reports

Daily Weather History Graph

Daily Weather History Graph

Search for Another Location

Airport:

Trip Planner

Search our weather history database for the weather conditions in past years. The results will help you decide how hot, cold, wet, or windy it might be!

Date:

Astronomy

Mar. 23, 2013 Rise Set
Actual Time 5:52 AM EET 6:25 PM EET
Civil Twilight 5:07 AM EET 7:10 PM EET
Nautical Twilight 4:11 AM EET 8:07 PM EET
Astronomical Twilight 3:08 AM EET 9:11 PM EET
Moon 1:28 PM EET (3/23) 4:26 AM EET (3/23)
Length of Visible Light 14h 03m
Length of Day
12h 32m
Waxing Gibbous, 83% of the Moon is Illuminated
Mar 23
Waxing Gibbous
Mar 27
Full
Apr 3
Last Quarter
Apr 10
New
Apr 18
First Quarter

Hourly Weather History & Observations

Time (EET) Temp. Windchill Dew Point Humidity Pressure Visibility Wind Dir Wind Speed Gust Speed Precip Events Conditions
12:20 AM 15.8 °F 7.2 °F 14.0 °F 93% 30.15 in 6.2 mi WNW 5.8 mph - N/A Snow Light Snow Showers
12:50 AM 17.6 °F 8.2 °F 15.8 °F 93% 30.15 in 6.2 mi NW 6.9 mph - N/A   Mostly Cloudy
1:20 AM 17.6 °F 9.3 °F 15.8 °F 93% 30.18 in 6.2 mi NW 5.8 mph - N/A   Partly Cloudy
1:50 AM 17.6 °F 10.7 °F 15.8 °F 93% 30.15 in 3.7 mi WNW 4.6 mph - N/A Snow Light Snow Showers
2:20 AM 15.8 °F 7.2 °F 14.0 °F 93% 30.18 in 6.2 mi West 5.8 mph - N/A   Scattered Clouds
2:50 AM 15.8 °F 7.2 °F 14.0 °F 93% 30.18 in 6.2 mi West 5.8 mph - N/A Snow Light Snow Showers
3:20 AM 15.8 °F 8.6 °F 12.2 °F 86% 30.18 in - West 4.6 mph - N/A   Clear
3:50 AM 14.0 °F 6.5 °F 12.2 °F 93% 30.18 in - WNW 4.6 mph - N/A   Clear
4:20 AM 14.0 °F 6.5 °F 12.2 °F 93% 30.18 in 6.2 mi West 4.6 mph - N/A   Partly Cloudy
4:50 AM 12.2 °F 2.9 °F 10.4 °F 92% 30.18 in - WNW 5.8 mph - N/A   Clear
5:20 AM 12.2 °F 2.9 °F 8.6 °F 85% 30.18 in - WNW 5.8 mph - N/A   Clear
5:50 AM 12.2 °F 4.3 °F 8.6 °F 85% 30.18 in 6.2 mi WNW 4.6 mph - N/A   Partly Cloudy
6:50 AM 10.4 °F -0.4 °F 8.6 °F 92% 30.18 in 6.2 mi WNW 6.9 mph - N/A Snow Light Snow Showers
7:20 AM 12.2 °F 1.7 °F 10.4 °F 92% 30.18 in 6.2 mi WNW 6.9 mph - N/A Snow Light Snow
7:50 AM 14.0 °F 5.1 °F 12.2 °F 93% 30.21 in 6.2 mi WNW 5.8 mph - N/A   Scattered Clouds
8:20 AM 17.6 °F 9.3 °F 15.8 °F 93% 30.21 in 6.2 mi WNW 5.8 mph - N/A Snow Light Snow Showers
8:50 AM 19.4 °F 11.5 °F 17.6 °F 93% 30.21 in 5.0 mi NNW 5.8 mph - N/A Snow Light Snow Showers
9:20 AM 23.0 °F 13.9 °F 19.4 °F 86% 30.21 in 6.2 mi NNW 8.1 mph - N/A Snow Light Snow Showers
9:50 AM 23.0 °F 13.9 °F 19.4 °F 86% 30.21 in 6.2 mi North 8.1 mph - N/A   Partly Cloudy
10:20 AM 24.8 °F 14.6 °F 17.6 °F 74% 30.24 in - North 10.4 mph - N/A   Clear
10:50 AM 24.8 °F 16.1 °F 17.6 °F 74% 30.24 in - North 8.1 mph - N/A   Clear
11:20 AM 24.8 °F 16.1 °F 15.8 °F 69% 30.24 in - NNW 8.1 mph - N/A   Clear
11:50 AM 26.6 °F 17.5 °F 15.8 °F 64% 30.24 in - NNW 9.2 mph - N/A   Clear
12:20 PM 26.6 °F 17.5 °F 15.8 °F 64% 30.27 in 6.2 mi NNW 9.2 mph - N/A   Scattered Clouds
12:50 PM 26.6 °F 18.2 °F 15.8 °F 64% 30.27 in 6.2 mi North 8.1 mph - N/A   Mostly Cloudy
1:20 PM 26.6 °F 16.8 °F 14.0 °F 59% 30.27 in 6.2 mi North 10.4 mph - N/A   Mostly Cloudy
1:50 PM 26.6 °F 17.5 °F 15.8 °F 64% 30.27 in 6.2 mi North 9.2 mph - N/A   Partly Cloudy
2:20 PM 28.4 °F 19.7 °F 14.0 °F 55% 30.27 in 6.2 mi NNW 9.2 mph - N/A   Scattered Clouds
2:50 PM 28.4 °F 21.2 °F 14.0 °F 55% 30.27 in 6.2 mi NNW 6.9 mph - N/A   Partly Cloudy
3:20 PM 28.4 °F 19.1 °F 14.0 °F 55% 30.27 in 6.2 mi NW 10.4 mph - N/A   Mostly Cloudy
3:50 PM 28.4 °F 20.4 °F 14.0 °F 55% 30.27 in 6.2 mi NNW 8.1 mph - N/A   Partly Cloudy
4:20 PM 28.4 °F 20.4 °F 14.0 °F 55% 30.27 in 6.2 mi NNW 8.1 mph - N/A   Scattered Clouds
4:28 PM 28.4 °F 20.4 °F 12.2 °F 51% 30.27 in 6.2 mi NNW 8.1 mph - N/A   Scattered Clouds
4:50 PM 28.4 °F 22.2 °F 12.2 °F 51% 30.27 in 6.2 mi NNW 5.8 mph - N/A   Mostly Cloudy
5:20 PM 28.4 °F 22.2 °F 14.0 °F 55% 30.27 in 6.2 mi NNW 5.8 mph - N/A   Mostly Cloudy
5:50 PM 28.4 °F 22.2 °F 14.0 °F 55% 30.27 in 6.2 mi NNW 5.8 mph - N/A   Mostly Cloudy
6:20 PM 26.6 °F - 14.0 °F 59% 30.30 in 6.2 mi North 2.3 mph - N/A   Mostly Cloudy
6:50 PM 23.0 °F - 12.2 °F 63% 30.30 in 6.2 mi NE 1.2 mph - N/A   Mostly Cloudy
7:20 PM 23.0 °F - 12.2 °F 63% 30.30 in 6.2 mi Calm Calm - N/A   Mostly Cloudy
7:50 PM 24.8 °F 19.1 °F 14.0 °F 64% 30.30 in 6.2 mi NW 4.6 mph - N/A   Mostly Cloudy
8:20 PM 23.0 °F 18.4 °F 12.2 °F 63% 30.33 in 6.2 mi WNW 3.5 mph - N/A   Mostly Cloudy
8:50 PM 23.0 °F 18.4 °F 14.0 °F 68% 30.33 in 6.2 mi NW 3.5 mph - N/A   Overcast
9:20 PM 23.0 °F 18.4 °F 14.0 °F 68% 30.33 in 6.2 mi NW 3.5 mph - N/A   Overcast
9:50 PM 21.2 °F - 14.0 °F 74% 30.33 in 6.2 mi West 2.3 mph - N/A   Overcast
10:20 PM 21.2 °F 16.4 °F 15.8 °F 80% 30.33 in - West 3.5 mph - N/A   Clear
10:50 PM 21.2 °F - 15.8 °F 80% 30.33 in - WNW 2.3 mph - N/A   Clear
11:20 PM 21.2 °F 16.4 °F 15.8 °F 80% 30.33 in - WNW 3.5 mph - N/A   Clear
11:50 PM 19.4 °F 14.3 °F 14.0 °F 80% 30.33 in - WNW 3.5 mph - N/A   Clear